This is the latest recevied weather packets stored in our database for station/object NI4CE-11. If no packets are shown the sender has not sent any weather packets the latest 10 day(s).
| Time | Temp. | Humidity | Pressure | Rain* | Wind** | Luminosity | Snow |
|---|---|---|---|---|---|---|---|
| 1777829699 | 23.33° C | 100% | 1018 hPa | 0 mm | - | - | - |
| 1777829399 | 22.78° C | 100% | 1018 hPa | 0 mm | - | - | - |
| 1777829119 | 22.22° C | 100% | 1018.2 hPa | 0 mm | - | - | - |
| 1777829099 | 23.33° C | 100% | 1018.1 hPa | 0 mm | - | - | - |
| 1777828799 | 22.22° C | 100% | 1018.2 hPa | 0 mm | - | - | - |
| 1777828778 | 22.78° C | 100% | 1018.2 hPa | 0 mm | - | - | - |
| 1777828499 | 22.78° C | 100% | 1018.2 hPa | 0 mm | - | - | - |
| 1777828282 | 22.78° C | 100% | 1018.3 hPa | 0 mm | - | - | - |
| 1777828199 | 22.78° C | 100% | 1018.1 hPa | 0 mm | - | - | - |
| 1777827899 | 22.78° C | 100% | 1018.3 hPa | 0 mm | - | - | - |
| 1777827819 | 23.33° C | 100% | 1018.3 hPa | 0 mm | - | - | - |
| 1777827599 | 23.33° C | 100% | 1018.3 hPa | 0 mm | - | - | - |
| 1777827299 | 22.22° C | 100% | 1018.3 hPa | 0 mm | - | - | - |
| 1777827214 | 21.67° C | 100% | 1018.4 hPa | 0 mm | - | - | - |
| 1777827125 | 21.67° C | 100% | 1018.6 hPa | 0 mm | - | - | - |
| 1777826999 | 21.67° C | 100% | 1018.4 hPa | 0 mm | - | - | - |
| 1777826928 | 21.67° C | 100% | 1018.5 hPa | 0 mm | - | - | - |
| 1777826699 | 21.67° C | 100% | 1018.5 hPa | 0 mm | - | - | - |
| 1777826399 | 21.67° C | 100% | 1018.6 hPa | 0 mm | - | - | - |
| 1777826376 | 22.22° C | 100% | 1018.6 hPa | 0 mm | - | - | - |
| 1777826287 | 22.22° C | 100% | 1018.6 hPa | 0 mm | - | - | - |
| 1777826099 | 22.22° C | 100% | 1018.6 hPa | 0 mm | - | - | - |
| 1777825844 | 21.67° C | 100% | 1018.5 hPa | 0 mm | - | - | - |
| 1777825799 | 22.22° C | 100% | 1018.5 hPa | 0 mm | - | - | - |
| 1777825499 | 21.67° C | 100% | 1018.5 hPa | 0 mm | - | - | - |
* Rain latest hour (hover to see other rain measurements)
** Current wind speed in m/s (hover to see current wind gust speed)